This is the latest recevied weather packets stored in our database for station/object EA3ABN-1. If no packets are shown the sender has not sent any weather packets the latest 10 day(s).
| Time | Temp. | Humidity | Pressure | Rain* | Wind** | Luminosity | Snow |
|---|---|---|---|---|---|---|---|
| 1777470284 | 30° C | 33% | 1009.3 hPa | - | - | - | - |
| 1777469700 | 30° C | 33% | 1009.4 hPa | - | - | - | - |
| 1777469384 | 30° C | 33% | 1009.5 hPa | - | - | - | - |
| 1777466983 | 29.44° C | 32% | 1009.4 hPa | - | - | - | - |
| 1777465784 | 29.44° C | 32% | 1009.4 hPa | - | - | - | - |
| 1777465483 | 29.44° C | 32% | 1009.4 hPa | - | - | - | - |
| 1777464583 | 29.44° C | 33% | 1009.6 hPa | - | - | - | - |
| 1777464283 | 29.44° C | 32% | 1009.6 hPa | - | - | - | - |
| 1777463400 | 29.44° C | 32% | 1009.8 hPa | - | - | - | - |
| 1777462499 | 29.44° C | 32% | 1009.8 hPa | - | - | - | - |
| 1777460983 | 29.44° C | 33% | 1009.9 hPa | - | - | - | - |
| 1777459783 | 29.44° C | 32% | 1009.8 hPa | - | - | - | - |
| 1777459484 | 29.44° C | 32% | 1009.8 hPa | - | - | - | - |
| 1777458283 | 28.89° C | 32% | 1009.7 hPa | - | - | - | - |
| 1777457983 | 28.89° C | 32% | 1009.7 hPa | - | - | - | - |
| 1777456784 | 28.89° C | 33% | 1009.6 hPa | - | - | - | - |
| 1777454383 | 28.33° C | 33% | 1009.3 hPa | - | - | - | - |
| 1777452883 | 27.78° C | 33% | 1009.4 hPa | - | - | - | - |
| 1777452583 | 27.78° C | 34% | 1009.4 hPa | - | - | - | - |
| 1777451684 | 27.22° C | 33% | 1009.5 hPa | - | - | - | - |
| 1777449883 | 26.11° C | 33% | 1009.4 hPa | - | - | - | - |
| 1777449283 | 25.56° C | 33% | 1009.2 hPa | - | - | - | - |
| 1777448683 | 25° C | 33% | 1009.3 hPa | - | - | - | - |
| 1777448384 | 25° C | 33% | 1009.3 hPa | - | - | - | - |
| 1777447483 | 24.44° C | 33% | 1009.3 hPa | - | - | - | - |
* Rain since midnight (hover to see other rain measurements)
** Current wind speed in m/s (hover to see current wind gust speed)